#timestamp,LO_Frequency,Hit,StdDev 
1505379615.3,286047000.1,N,1.0
1505379635.1,286046999.8,N,1.0
1505379655.9,286047000.1,N,0.9
1505379675.7,286046999.9,N,0.9
1505379695.5,286047000.0,N,0.9
1505379715.4,286047002.4,N,1.0
1505379735.2,286047002.5,N,1.0
1505379755.1,286046999.8,N,1.0
1505379756.0,286046999.8,N,1.0
1505379775.8,286047002.7,N,1.1
1505379825.7,286047002.6,E,nan
1505379835.6,286047000.8,N,0.0
1505379855.4,286046999.1,P,0.9
1505379875.3,286046999.6,N,0.7
1505379895.1,286046999.2,N,0.7
1505379915.8,286046999.1,N,0.6
1505379935.7,286046996.5,Y,0.0
1505379955.5,286046999.4,P,0.1
1505379975.4,286046998.8,P,0.3
1505379995.2,286046998.8,P,0.3
1505380015.0,286046999.1,N,0.3
1505380015.9,286046999.1,Y,0.0
1505380035.8,286046998.1,P,0.5
1505380055.6,286047001.2,N,1.3
1505380075.5,286046999.9,N,1.1
1505380095.3,286047002.1,N,1.4
1505380115.1,286047000.4,N,1.3
1505380135.9,286047000.9,N,1.2
1505380155.7,286047001.0,N,1.2
1505380175.5,286047000.5,N,1.1
1505380195.4,286047000.6,N,1.1
1505380215.2,286047001.0,N,1.0
1505380235.1,286046998.1,N,1.2
1505380236.0,286046998.1,N,1.3
1505380255.8,286047001.2,N,1.3
1505380275.6,286047001.0,N,1.2
1505380295.5,286046999.8,N,1.2
1505380315.3,286046999.7,N,1.2
1505380335.2,286042571.0,Y,0.0
1505380355.9,286047000.4,P,0.1
1505380375.7,286047001.1,P,0.4
1505380395.6,286047000.4,N,0.4
1505380415.4,286047000.4,N,0.3
1505380435.2,286047000.5,N,0.3
1505380455.1,286047000.4,N,0.3
1505380456.0,286047000.4,N,0.3
1505380475.8,286046999.8,N,0.3
1505380495.7,286047000.1,N,0.3
1505380515.5,286047002.8,Y,0.0
1505380535.3,286046999.9,P,0.2
1505380555.2,286047000.1,N,0.2
1505380575.0,286047000.3,N,0.2
1505380575.9,286047000.3,N,0.2
1505380595.8,286047000.1,N,0.2
1505380615.6,286047000.1,N,0.2
1505380635.4,286047000.5,Y,0.0
1505380655.3,286046998.5,P,0.8
1505380675.1,286047001.2,N,1.1
1505380695.9,286046998.5,N,1.2
1505380715.7,286047000.8,N,1.1
1505380735.5,286046998.5,N,1.2
1505380755.4,286047001.2,N,1.2
1505380775.2,286046998.8,N,1.2
1505380795.0,286046998.3,N,1.2
1505380795.9,286046998.3,N,1.2
1505380815.8,286047000.7,N,1.2
1505380835.6,286047001.2,N,1.2
1505380855.5,286047000.7,N,1.2
1505380875.3,286047000.5,N,1.2
1505380895.1,286047000.6,N,1.2
1505380915.9,286047000.9,N,1.2
1505380935.7,286047000.9,N,1.1
1505380955.6,286047000.0,N,1.1
1505380975.4,286047000.0,N,1.1
1505380995.2,286047000.5,N,1.1
1505381015.1,286047000.9,N,1.1
1505381016.0,286047000.9,N,1.0
1505381035.8,286047001.0,N,1.0
1505381055.7,286047000.5,N,1.0
1505381075.5,286047001.2,N,1.0
1505381095.3,286047000.5,N,1.0
1505381115.2,286047000.9,N,1.0
1505381135.0,286047000.9,N,1.0
1505381135.9,286047000.9,N,1.0
1505381155.8,286046998.5,N,1.0
1505381175.6,286047001.1,N,1.0
1505381195.4,286046998.5,N,1.0
1505381215.3,286047001.1,N,1.0
1505381235.1,286046998.2,N,1.0
1505381255.8,286047000.9,N,1.0
1505381275.7,286046999.7,N,1.0
1505381295.5,286047002.7,N,1.1
1505381315.4,286046999.7,N,1.0
1505381335.2,286047002.7,N,1.0
1505381355.0,286046999.9,N,1.0
1505381355.9,286046999.9,N,1.0
1505381375.8,286047001.1,N,1.0
1505381395.6,286047000.7,N,1.0
1505381415.5,286047000.0,N,1.0
1505381435.3,286047000.2,N,1.0
1505381455.1,286047002.4,N,1.0
1505381475.9,286046999.8,N,1.0
1505381495.7,286046999.9,N,1.0
1505381515.5,286047002.8,N,1.1
1505381535.4,286047000.4,N,1.1
1505381555.2,286046999.8,N,1.1
1505381575.1,286047000.4,N,1.1
1505381576.0,286047000.4,N,1.1
1505381595.8,286047002.7,N,1.2
1505381615.6,286047000.5,N,1.2
1505381635.5,286047000.4,N,1.2
1505381655.3,286047000.8,N,1.2
1505381675.1,286047000.7,N,1.2
1505381695.9,286046998.1,N,1.3
1505381715.7,286046998.5,N,1.3
1505381735.6,286046998.5,N,1.3
1505381755.4,286046998.7,N,1.3
1505381775.2,286046999.6,N,1.3
1505381795.1,286046998.4,N,1.3
1505381796.0,286046998.4,N,1.3
1505381815.8,286046998.6,N,1.4
1505381835.7,286046999.4,N,1.3
1505381855.5,286046999.5,N,1.3
1505381875.4,286046997.2,N,1.3
1505381895.2,286046997.9,N,1.3
1505381915.0,286046996.8,N,1.4
1505381915.9,286046996.8,N,1.5
1505381935.8,286046995.0,Y,0.0
1505381955.6,286046997.8,P,0.9
1505381975.4,286046997.9,N,0.8
1505381995.3,286046997.6,N,0.8
1505382015.1,286046995.3,Y,0.0
1505382035.9,286046996.9,P,0.7
1505382055.7,286046999.2,N,0.9
1505382075.5,286046999.5,N,1.0
1505382095.4,286046997.1,N,1.1
1505382115.2,286046994.9,Y,0.0
1505382135.1,286046996.8,P,0.7
1505382136.0,286046996.8,P,0.7
1505382155.8,286046997.1,P,0.6
1505382175.6,286046999.1,N,0.9
1505382195.5,286046999.2,N,1.0
1505382215.3,286046999.4,N,1.1
1505382235.2,286046998.4,N,1.0
1505382255.9,286046997.0,N,1.0
1505382275.7,286046998.0,N,1.0
1505382295.6,286046997.1,Y,0.0
1505382315.4,286046998.5,P,0.3
1505382335.3,286046998.3,P,0.2
1505382355.1,286046999.3,P,0.5
1505382356.0,286046999.3,N,0.5
1505382375.8,286046998.9,N,0.5
1505382395.7,286046999.3,N,0.5
1505382415.5,286046996.7,Y,0.0
1505382435.3,286046999.3,P,0.3
1505382455.2,286046999.4,N,0.3
1505382475.0,286046998.4,P,0.4
1505382475.9,286046998.4,Y,0.0
1505382495.8,286047000.8,P,0.9
1505382515.6,286047001.2,N,1.0
1505382535.4,286046999.3,N,0.9
1505382555.3,286046998.2,N,1.1
1505382575.1,286046998.3,N,1.2
1505382595.9,286047001.1,N,1.2
1505382615.7,286047000.7,N,1.2
1505382635.5,286046998.5,N,1.2
1505382655.4,286046999.3,N,1.1
1505382675.2,286046999.1,N,1.1
1505382695.0,286046999.6,N,1.0
1505382696.0,286046999.6,N,1.0
1505382715.8,286046997.1,N,1.2
1505382735.6,286046997.2,N,1.3
1505382755.5,286046996.8,N,1.4
1505382775.3,286046996.5,N,1.4
1505382795.1,286046997.4,N,1.5
1505382815.9,286046999.6,N,1.4
1505382835.7,286046999.6,N,1.4
1505382855.6,286046996.8,N,1.4
1505382875.4,286046997.9,N,1.4
1505382895.2,286046995.0,Y,0.0
1505382915.1,286046999.0,P,0.1
1505382916.0,286046999.0,P,0.1
1505382935.8,286046996.6,P,1.0
1505382955.7,286046999.1,N,1.0
1505382975.5,286046999.1,N,0.9
1505382995.3,286046999.1,N,0.9
1505383015.2,286046999.2,N,0.8
1505383035.0,286046999.3,N,0.8
1505383035.9,286046999.3,N,0.8
1505383055.8,286046999.3,N,0.7
1505383075.6,286046999.1,N,0.7
1505383095.4,286046996.6,Y,0.0
1505383115.3,286047000.9,P,1.0
1505383135.1,286046998.3,N,1.1
1505383155.9,286046999.3,N,1.0
1505383175.7,286046999.4,N,0.9
1505383195.5,286046999.6,N,0.8
